[[{"header":{"parameterUnit":"m.s-1","parameterCategory":1,"la1":30.2991,"la2":30.254,"lo1":-89.0895,"lo2":-89.0444,"dy":0.0017,"dx":0.0017,"nx":28,"ny":28,"refTime":"2024-11-24T03:00:00:Z","depth":0,"parameterNumber":2,"parameterNumberName":"U-component_of_WINDS"},"data":[0,0,0,0,0,0,0,0,0,0,0,0,0,0,0,0,0,0,0,0,0,0,0,0,0,0,0,0,0,0,0,0,0,0,0,0,0,0,0,0,0,0,0,0,0,0,0,0,0,0,0,0,0,0,0,0,0,0,2.2393,2.2394,0,2.2467,2.2468,2.2469,2.2451,2.245,2.2448,2.2447,2.2524,2.2527,2.2531,0,0,0,0,0,0,0,0,0,0,0,0,0,2.2236,2.2239,2.2393,2.2394,2.2395,2.2467,2.2468,2.2469,2.2451,2.245,2.2448,2.2446,2.2523,2.2527,2.2531,0,0,0,0,0,0,0,0,0,0,0,0,0,2.2307,2.224,2.2393,2.2395,2.2396,2.2467,2.2468,2.2469,2.2452,2.245,2.2448,2.2446,2.2522,2.2527,2.2532,2.2606,0,0,2.2547,2.2549,0,0,0,0,0,0,0,0,2.2303,2.2313,2.2393,2.2395,2.2396,2.2448,2.2441,2.2515,2.2452,2.2431,2.2447,2.2444,2.2501,2.2507,2.2526,2.261,2.2613,2.2548,2.2551,2.2553,2.2554,0,0,0,0,0,0,0,2.2298,2.2309,2.2422,2.2395,2.2396,2.2392,2.24,2.2455,2.2477,2.2432,2.2431,2.244,2.2501,2.2521,2.2528,2.2614,2.2548,2.2552,2.2555,2.2557,2.2763,2.2765,0,0,0,0,0,0,2.2292,2.2305,2.242,2.2425,2.2343,2.2397,2.2405,2.2433,2.2476,2.248,2.2442,2.2439,2.2513,2.2522,2.253,2.262,2.2553,2.2558,2.2561,2.276,2.2763,2.2766,0,0,0,0,0,0,2.2289,2.2302,2.2417,2.2365,2.2379,2.2402,2.2433,2.2436,2.2456,2.2483,2.2487,2.2459,2.2512,2.2523,2.2587,2.2622,2.256,2.2565,2.2758,2.2761,2.2765,2.28,0,0,0,0,0,0,2.2284,2.2301,2.233,2.2365,2.2382,2.2473,2.2435,2.2439,2.2465,2.2462,2.25,2.2504,2.2511,2.258,2.2592,2.2628,2.2569,2.2754,2.2759,2.2763,2.2796,2.2805,2.2812,0,0,0,0,0,2.2279,2.2337,2.2331,2.2345,2.2418,2.2475,2.2484,2.249,2.2468,2.2496,2.2514,2.2503,2.2617,2.2587,2.26,2.2639,2.2752,2.2758,2.2763,2.2793,2.2803,2.2812,0,0,0,0,0,0,2.2305,2.2342,2.2336,2.2407,2.2438,2.2471,2.2508,2.2501,2.254,2.2535,2.2542,2.2551,2.2616,2.2634,2.26,2.2713,2.2681,2.269,2.2699,2.2709,2.2717,2.2711,2.2573,0,0,0,0,0,2.2319,2.2362,2.2392,2.2452,2.2468,2.2485,2.251,2.2513,2.2545,2.2558,2.258,2.2612,2.2655,2.2683,2.2724,2.2799,2.2807,2.2832,2.284,2.2846,2.2853,2.2894,2.2906,2.2784,2.2784,2.2784,0,0,2.2348,2.2374,2.24,2.2458,2.2482,2.2526,2.2496,2.2545,2.2578,2.2565,2.2627,2.2645,2.2681,2.2751,2.2782,2.2767,2.2889,2.2853,2.2858,2.2862,2.2901,2.2913,2.2923,2.2787,2.2787,2.2786,0,0,2.2424,2.2448,2.2501,2.2525,2.2562,2.2574,2.2586,2.2621,2.2632,2.2694,2.2686,2.2726,2.2799,2.2826,2.2848,2.2935,2.2926,2.2948,2.299,2.303,2.3039,2.3048,2.3078,2.3089,2.2955,2.2955,2.2956,0,2.2456,2.2523,2.2529,2.2578,2.2603,2.2594,2.2647,2.2671,2.272,2.2738,2.272,2.2812,2.2836,2.2912,2.2933,2.2952,2.2967,2.2944,2.3037,2.3046,2.3054,2.3083,2.3095,2.2958,2.2958,2.2957,2.2957,0,2.256,2.2606,2.2644,2.2691,2.2721,2.2772,2.2786,2.2816,2.2816,2.2829,2.2893,2.2921,2.2967,2.2985,2.2986,2.3062,2.3051,2.3035,2.3004,2.3068,2.3096,2.3107,2.2961,2.296,2.296,2.2959,0,0,2.2654,2.2704,2.2717,2.2739,2.2779,2.2815,2.2866,2.2911,2.2936,2.297,2.3013,2.3076,2.3062,2.3088,2.3091,2.3126,2.3193,2.3106,2.3107,2.3121,2.3278,2.3289,2.3302,2.3188,2.319,2.3192,2.3275,0,2.2733,2.2823,2.283,2.291,2.2953,2.2945,2.2989,2.3019,2.3033,2.3072,2.3087,2.3132,2.311,2.3125,2.316,2.3177,2.3224,2.3172,2.3228,2.323,2.3218,2.3316,2.3328,2.3405,2.3285,2.3287,2.3289,0,2.2838,2.2875,2.2959,2.2994,2.3012,2.3052,2.3094,2.3131,2.3165,2.3172,2.3202,2.32,2.3253,2.322,2.3292,2.3256,2.328,2.3292,2.3295,2.33,2.3263,2.3324,2.343,2.3441,2.3306,2.3304,2.3303,0,2.2897,2.2968,2.3028,2.3046,2.3088,2.3116,2.3135,2.3167,2.3193,2.323,2.3248,2.3291,2.3314,2.3348,2.3358,2.3333,2.3431,2.3398,2.3438,2.3438,2.3459,2.3457,2.357,2.3475,2.3475,2.3474,2.3474,0,2.2985,2.3037,2.3055,2.3092,2.315,2.3158,2.3216,2.3233,2.3261,2.3301,2.3298,2.3335,2.3347,2.3387,2.3396,2.3455,2.3466,2.3473,2.3475,2.3474,2.3472,2.3489,2.3483,2.3477,2.3477,2.3476,2.3476,0,2.306,2.3075,2.314,2.3174,2.3184,2.3225,2.3255,2.3291,2.3304,2.3355,2.3367,2.3389,2.3436,2.345,2.3507,2.3512,2.3581,2.3578,2.357,2.357,2.3609,2.3605,2.3736,2.3753,2.3647,2.3648,2.3649,0,2.3115,2.3155,2.3194,2.322,2.324,2.3283,2.331,2.332,2.3349,2.339,2.3421,2.3468,2.3505,2.3581,2.3601,2.3645,2.3643,2.3685,2.3649,2.3646,2.3643,2.364,2.3644,2.3692,2.3693,2.3694,2.3695,0,2.321,2.3215,2.3255,2.3297,2.333,2.3364,2.3397,2.3419,2.3433,2.3466,2.3514,2.3543,2.3601,2.3647,2.3691,2.3711,2.3705,2.3706,2.3718,2.3716,2.371,2.3714,2.3588,2.3703,2.3702,2.3702,2.3701,2.3701,2.3277,2.3312,2.3345,2.3389,2.3414,2.3445,2.348,2.3498,2.3539,2.3586,2.359,2.3642,2.3675,2.3733,2.3756,2.3796,2.3784,2.3801,2.3805,2.3809,2.3812,2.3704,2.3805,2.3804,2.3804,2.3804,2.3804,0,2.3371,2.3392,2.3433,2.3478,2.3514,2.3506,2.3541,2.3571,2.3617,2.3648,2.3685,2.3741,2.3786,2.381,2.3855,2.3883,2.3882,2.3895,2.3893,2.3897,2.3821,2.3806,2.3895,2.3895,2.3895,2.3895,2.3895,2.3895,2.3424,2.3483,2.3493,2.3564,2.3585,2.3636,2.3657,2.3685,2.371,2.3772,2.381,2.3825,2.3854,2.3901,2.3942,2.3948,2.3965,2.3979,2.3984,2.3912,2.3903,2.3894,2.388,2.3983,2.3983,2.4057,2.4058,2.4058]},{"header":{"parameterUnit":"m.s-1","parameterCategory":1,"la1":30.2991,"la2":30.254,"lo1":-89.0895,"lo2":-89.0444,"dy":0.0017,"dx":0.0017,"nx":28,"ny":28,"refTime":"2024-11-24T03:00:00:Z","depth":0,"parameterNumber":3,"parameterNumberName":"V-component_of_WINDS"},"data":[0,0,0,0,0,0,0,0,0,0,0,0,0,0,0,0,0,0,0,0,0,0,0,0,0,0,0,0,0,0,0,0,0,0,0,0,0,0,0,0,0,0,0,0,0,0,0,0,0,0,0,0,0,0,0,0,0,0,4.1475,4.1477,0,4.1608,4.161,4.1611,4.1623,4.1622,4.162,4.1619,4.1749,4.1754,4.1759,0,0,0,0,0,0,0,0,0,0,0,0,0,4.1225,4.123,4.1475,4.1477,4.1479,4.1608,4.161,4.1612,4.1623,4.1621,4.162,4.1618,4.1748,4.1753,4.1759,0,0,0,0,0,0,0,0,0,0,0,0,0,4.1343,4.1231,4.1475,4.15,4.1504,4.1608,4.161,4.1612,4.1624,4.1621,4.1619,4.1617,4.1746,4.1753,4.176,4.1846,0,0,4.1782,4.1785,0,0,0,0,0,0,0,0,4.1337,4.1353,4.1495,4.1499,4.1503,4.1597,4.157,4.1691,4.1624,4.1578,4.1619,4.1616,4.17,4.1711,4.174,4.1852,4.1858,4.1782,4.1787,4.179,4.1792,0,0,0,0,0,0,0,4.1329,4.1347,4.1528,4.1497,4.1502,4.1503,4.1517,4.1593,4.1649,4.1582,4.1583,4.1599,4.1702,4.1733,4.1743,4.186,4.1782,4.1789,4.1793,4.1796,4.205,4.2052,0,0,0,0,0,0,4.1316,4.134,4.1524,4.1532,4.1413,4.1509,4.1525,4.1569,4.1648,4.1658,4.16,4.1599,4.1722,4.1735,4.1748,4.1855,4.179,4.1796,4.1801,4.2047,4.205,4.2053,0,0,0,0,0,0,4.1311,4.1333,4.1518,4.1436,4.146,4.1516,4.1564,4.1573,4.1604,4.1662,4.1672,4.1623,4.1721,4.1738,4.1822,4.186,4.18,4.1806,4.2044,4.2048,4.2051,4.2069,0,0,0,0,0,0,4.1304,4.1331,4.1366,4.1437,4.1464,4.1592,4.1567,4.1577,4.1617,4.1616,4.1686,4.1695,4.172,4.1811,4.1829,4.1868,4.1812,4.2041,4.2046,4.205,4.2066,4.2073,4.208,0,0,0,0,0,4.1295,4.1364,4.1367,4.1389,4.151,4.1594,4.161,4.1639,4.162,4.1655,4.1692,4.1693,4.1852,4.182,4.184,4.1882,4.2039,4.2045,4.205,4.2063,4.2072,4.2079,0,0,0,0,0,0,4.1293,4.1374,4.1378,4.1473,4.1527,4.1596,4.1641,4.1648,4.1707,4.1703,4.1735,4.175,4.1834,4.1866,4.1828,4.197,4.1943,4.1953,4.1946,4.1955,4.1962,4.1953,4.1818,0,0,0,0,0,4.1304,4.1369,4.1434,4.1511,4.1539,4.1585,4.1623,4.1641,4.1697,4.172,4.1763,4.1816,4.1878,4.1918,4.1978,4.207,4.2085,4.2108,4.2115,4.2121,4.2129,4.218,4.2191,4.2071,4.2071,4.2071,0,0,4.1327,4.1379,4.1417,4.1513,4.1557,4.1621,4.1604,4.1672,4.172,4.1729,4.1813,4.1846,4.1907,4.1996,4.2037,4.2025,4.2166,4.2128,4.2132,4.2137,4.2187,4.2198,4.2208,4.2074,4.2074,4.2073,0,0,4.1402,4.1448,4.1518,4.1562,4.163,4.166,4.1677,4.1745,4.1768,4.1853,4.1861,4.1917,4.2023,4.2066,4.2102,4.2193,4.2196,4.2211,4.2248,4.2297,4.2307,4.2315,4.2348,4.236,4.2219,4.2219,4.2219,0,4.1422,4.1521,4.1552,4.1621,4.1662,4.1675,4.1745,4.1786,4.1869,4.1896,4.1882,4.2017,4.2058,4.2157,4.218,4.2208,4.2227,4.2204,4.2303,4.2312,4.2321,4.2352,4.2364,4.2221,4.2221,4.222,4.222,0,4.1541,4.161,4.1657,4.174,4.1786,4.1855,4.1895,4.1938,4.1951,4.1983,4.2068,4.2118,4.219,4.2214,4.2227,4.2315,4.2306,4.2297,4.2271,4.2333,4.2363,4.2376,4.2223,4.2222,4.2222,4.2222,0,0,4.162,4.1719,4.1736,4.1773,4.1848,4.1901,4.1969,4.2041,4.2077,4.2133,4.2191,4.2281,4.2274,4.2314,4.2332,4.2375,4.2444,4.2361,4.2363,4.2375,4.2544,4.2551,4.2565,4.2446,4.2448,4.245,4.2539,0,4.1704,4.1829,4.1859,4.1966,4.2029,4.2042,4.2102,4.2154,4.2184,4.2241,4.2274,4.2337,4.2323,4.2347,4.239,4.2427,4.2478,4.242,4.2499,4.2502,4.2485,4.258,4.2588,4.2669,4.2551,4.2553,4.2555,0,4.1819,4.188,4.1994,4.2061,4.2089,4.2142,4.221,4.2264,4.2322,4.2341,4.2387,4.2401,4.2471,4.2441,4.2538,4.2498,4.2531,4.2554,4.2557,4.2567,4.2533,4.2593,4.2696,4.2708,4.2573,4.2572,4.2571,0,4.1865,4.1976,4.2058,4.209,4.217,4.2208,4.2242,4.2299,4.234,4.2398,4.2425,4.2489,4.2525,4.2574,4.2604,4.2579,4.2698,4.2671,4.2715,4.2715,4.2741,4.2739,4.2852,4.2761,4.276,4.276,4.276,0,4.1957,4.2026,4.2081,4.2132,4.2209,4.2242,4.2317,4.2351,4.2401,4.2458,4.2471,4.2523,4.256,4.2616,4.264,4.2716,4.2732,4.2748,4.2754,4.2748,4.2746,4.2771,4.2767,4.2763,4.2763,4.2762,4.2762,0,4.2022,4.2062,4.2153,4.2222,4.2241,4.2295,4.2353,4.2402,4.2433,4.2504,4.2523,4.2571,4.2638,4.2673,4.2756,4.2772,4.2858,4.286,4.284,4.2842,4.2885,4.2881,4.3019,4.3039,4.2934,4.2935,4.2935,0,4.2079,4.2133,4.2208,4.2248,4.2284,4.2348,4.239,4.2424,4.2467,4.2537,4.2578,4.2646,4.2703,4.281,4.2851,4.2915,4.2918,4.2962,4.2928,4.292,4.292,4.2917,4.2922,4.2968,4.297,4.297,4.2971,0,4.2174,4.2191,4.2253,4.2322,4.2373,4.2429,4.2483,4.2514,4.2556,4.2604,4.2674,4.2718,4.2805,4.2872,4.2939,4.2973,4.2979,4.2981,4.2995,4.299,4.2977,4.2985,4.2857,4.2978,4.2978,4.2977,4.2977,4.2976,4.2238,4.2286,4.2348,4.2416,4.2461,4.2511,4.2561,4.2599,4.2659,4.2734,4.2749,4.2823,4.2879,4.297,4.3005,4.3063,4.3053,4.3073,4.3078,4.3083,4.3085,4.2967,4.3075,4.3074,4.3074,4.3074,4.3074,0,4.2335,4.2375,4.2437,4.2514,4.2568,4.2571,4.2631,4.2675,4.2741,4.2794,4.285,4.293,4.2996,4.3043,4.3109,4.3146,4.315,4.3162,4.316,4.3168,4.309,4.3072,4.3158,4.3158,4.3158,4.3158,4.3158,4.3158,4.2392,4.2475,4.2499,4.2603,4.2642,4.2718,4.2752,4.2798,4.284,4.2931,4.2986,4.3017,4.3066,4.3137,4.3196,4.3208,4.3232,4.3244,4.3256,4.3182,4.3173,4.3165,4.3148,4.3249,4.3249,4.333,4.333,4.3331]}]]